Weather History for Lovelock, NV

Change the Weather History Date:

Monday, May 13, 2013

  Actual Average Record
Temperature  
Mean Temperature 68 °F -  
Max Temperature 91 °F 75 °F 94 °F (1976)
Min Temperature 46 °F 42 °F 27 °F (2008)
Cooling Degree Days 4    
Growing Degree Days 18 (Base 50)    
Moisture  
Dew Point 28 °F    
Average Humidity 25    
Maximum Humidity 54    
Minimum Humidity 9    
Precipitation  
Precipitation 0.00 in - - ()
Sea Level Pressure  
Sea Level Pressure 30.00 in    
Wind  
Wind Speed 7 mph (WSW)    
Max Wind Speed 21 mph    
Max Gust Speed 36 mph    
Visibility 10 miles    
Events      
Averages and records for this station are not official NWS values.
T = Trace of Precipitation, MM = Missing Value Source: NWS Daily Summary

Daily Weather History Graph

Daily Weather History Graph

Search for Another Location

Airport:

Trip Planner

Search our weather history database for the weather conditions in past years. The results will help you decide how hot, cold, wet, or windy it might be!

Date:

Astronomy

May. 13, 2013 Rise Set
Actual Time 5:40 AM PDT 8:01 PM PDT
Civil Twilight 5:09 AM PDT 8:31 PM PDT
Nautical Twilight 4:32 AM PDT 9:09 PM PDT
Astronomical Twilight 3:50 AM PDT 9:51 PM PDT
Moon 8:30 AM PDT (5/13) 11:13 PM PDT (5/13)
Length of Visible Light 15h 22m
Length of Day
14h 20m
Waxing Crescent, 13% of the Moon is Illuminated
May 13
Waxing Crescent
May 17
First Quarter
May 24
Full
May 31
Last Quarter
Jun 8
New

Hourly Weather History & Observations

Time (PDT) Temp. Dew Point Humidity Pressure Visibility Wind Dir Wind Speed Gust Speed Precip Events Conditions
12:53 AM 55.0 °F 34.0 °F 45% 30.04 in 10.0 mi ESE 6.9 mph - N/A   Clear
1:53 AM 55.0 °F 32.0 °F 42% 30.03 in 10.0 mi West 3.5 mph - N/A   Clear
2:53 AM 52.0 °F 28.9 °F 41% 30.03 in 10.0 mi Calm Calm - N/A   Clear
3:53 AM 50.0 °F 30.0 °F 46% 30.03 in 10.0 mi Calm Calm - N/A   Clear
4:53 AM 46.9 °F 30.0 °F 52% 30.04 in 10.0 mi NE 3.5 mph - N/A   Clear
5:53 AM 46.0 °F 30.0 °F 54% 30.06 in 10.0 mi Calm Calm - N/A   Clear
6:53 AM 54.0 °F 32.0 °F 43% 30.07 in 10.0 mi Calm Calm - N/A   Clear
7:53 AM 66.0 °F 32.0 °F 28% 30.06 in 10.0 mi Calm Calm - N/A   Clear
8:53 AM 73.0 °F 34.0 °F 24% 30.06 in 10.0 mi Calm Calm - N/A   Clear
9:53 AM 80.1 °F 30.0 °F 16% 30.04 in 10.0 mi South 12.7 mph - N/A   Clear
10:53 AM 82.0 °F 28.0 °F 14% 30.04 in 10.0 mi WSW 6.9 mph 18.4 mph N/A   Clear
11:53 AM 86.0 °F 28.0 °F 12% 30.01 in 10.0 mi SSW 17.3 mph 25.3 mph N/A   Clear
1:53 PM 90.0 °F 26.1 °F 10% 29.98 in 10.0 mi SW 16.1 mph 31.1 mph N/A   Clear
2:53 PM 90.0 °F 26.1 °F 10% 29.97 in 10.0 mi West 16.1 mph 35.7 mph N/A   Clear
3:53 PM 91.0 °F 24.1 °F 9% 29.94 in 10.0 mi SSW 19.6 mph 29.9 mph N/A   Clear
4:08 PM 90.0 °F 26.1 °F 10% 30.04 in 10.0 mi West 13.8 mph 26.5 mph N/A   Clear
5:53 PM 88.0 °F 26.1 °F 11% 29.92 in 10.0 mi West 20.7 mph 26.5 mph N/A   Clear
6:53 PM 84.0 °F 25.0 °F 12% 29.91 in 10.0 mi West 15.0 mph - N/A   Clear
7:53 PM 79.0 °F 26.1 °F 14% 29.90 in 10.0 mi West 15.0 mph - N/A   Clear
8:53 PM 75.0 °F 27.0 °F 17% 29.92 in 10.0 mi West 12.7 mph - N/A   Clear
9:53 PM 68.0 °F 24.1 °F 19% 29.94 in 10.0 mi WSW 5.8 mph - N/A   Clear
10:53 PM 62.1 °F 24.1 °F 23% 29.95 in 10.0 mi Calm Calm - N/A   Clear
11:53 PM 64.0 °F 21.9 °F 20% 29.95 in 10.0 mi NW 9.2 mph - N/A   Clear